Regional Weather Roundup
Issued by NWS

Home | Current Version | Previous Version | Graphics & Text | Print | Product List | Glossary On
Versions: 1 2 3 4 5 6 7 8 9 10 11 12 13 14 15 16 17 18 19 20 21 22 23 24 25 26 27 28 29 30 31 32 33 34 35 36 37 38 39 40 41 42 43 44 45 46 47 48 49 50
000
ASUS43 KIND 180959
RWRIN

WEATHER ROUNDUP FOR INDIANA
NATIONAL WEATHER SERVICE INDIANAPOLIS IN
600 AM EDT SAT APR 18 2015

NOTE: "FAIR" INDICATES FEW OR NO CLOUDS BELOW 12,000 FEET WITH NO
SIGNIFICANT WEATHER AND/OR OBSTRUCTIONS TO VISIBILITY.

* - STATION DOES NOT REPORT WEATHER SUCH AS PRECIPITATION OR FOG.

+ - STATION NOT QUALITY CONTROLLED BY THE NATIONAL WEATHER SERVICE.
    USE DATA WITH CAUTION...ESPECIALLY DEWPOINT AND RELATIVE
    HUMIDITY OBSERVATIONS.

INZ001>003-010>013-019-020-181100-
NORTHWEST INDIANA

CITY           SKY/WX    TMP DP  RH WIND       PRES   REMARKS
GARY /AIRPORT/ PTCLDY    61  43  51 SW5       30.02F
RENSSELAER +   CLEAR     54  46  76 CALM      30.03S

$$

LMZ046-743>745-181100-
SOUTHERN LAKE MICHIGAN

STATION/POSITION TIME  TEMP WIND        PRES
                       AIR  DIR/SP/G
                 (UTC) (F)  (DEG/KT/KT) (MB)
BURNS HARBOR     0900   61  220/  7/  8 1016.9S
MICHIGAN CITY    0900   64  200/  9/ 10   N/A
4NW MICH CITY    0900   54                N/A

$$

INZ004-005-014>016-021>024-181100-
NORTH CENTRAL INDIANA

CITY           SKY/WX    TMP DP  RH WIND       PRES   REMARKS
GOSHEN         MOCLDY    55  45  68 CALM      30.03S
SOUTH BEND     CLEAR     55  44  66 CALM      30.04R

$$

INZ006>009-017-018-025>027-181100-
NORTHEAST INDIANA

CITY           SKY/WX    TMP DP  RH WIND       PRES   REMARKS
ANGOLA *+      PTCLDY    50  46  87 CALM      30.04R
FORT WAYNE     CLEAR     54  45  71 CALM      30.04S

$$

INZ028-029-035-036-043>045-051>053-181100-
WEST CENTRAL INDIANA

CITY           SKY/WX    TMP DP  RH WIND       PRES   REMARKS
CRAWFORDSVL +  CLEAR     48  43  82 CALM      30.03F
GREENCASTLE +  CLEAR     52  41  66 CALM      30.04S
LAFAYETTE      CLEAR     49  46  90 CALM      30.02F
TERRE HAUTE    CLEAR     51  48  89 NE3       30.02F

$$

INZ030>032-037>040-046>048-054>057-064-065-181100-
CENTRAL INDIANA

CITY           SKY/WX    TMP DP  RH WIND       PRES   REMARKS
INDIANAPOLIS   CLEAR     54  44  69 NE3       30.02F
-EAGLE CREEK   CLEAR     51  47  86 CALM      30.03F
KOKOMO *+      CLEAR     48  45  87 CALM      30.04S
MT COMFORT *+  CLEAR     48 N/A N/A CALM      30.05F
SHELBYVILLE    CLEAR     51  44  77 NE5       30.04S

$$

INZ033-034-041-042-049-050-058-059-181100-
EAST CENTRAL INDIANA

CITY           SKY/WX    TMP DP  RH WIND       PRES   REMARKS
MUNCIE         CLEAR     51  44  77 CALM      30.05F

$$

INZ060-061-067>069-081>083-085>088-181100-
SOUTHWEST INDIANA

CITY           SKY/WX    TMP DP  RH WIND       PRES   REMARKS
EVANSVILLE     CLEAR     57  54  89 CALM      30.01S FOG
HUNTINGBURG *+ CLOUDY    54  48  82 CALM      30.02S VSB 1/4

$$

INZ062-063-066-070>080-084-089>092-181100-
SOUTH CENTRAL AND SOUTHEAST INDIANA

CITY           SKY/WX    TMP DP  RH WIND       PRES   REMARKS
BLOOMINGTON    CLEAR     49  46  90 CALM      30.02F
MADISON *+     CLEAR     52  46  82 CALM      30.05F

$$



USA.gov is the U.S. government's official web portal to all federal, state and local government web resources and services.